STARLINK-11173, 60192

Orbit data source: Space-Track

STARLINK-11173, 60192 is a payload satellite owned by SpaceX/Seattle (US) in LEO that was launched on Wed, 03 Jul 2024 UTC via an FALCON 9 launch vehicle from the Air Force Eastern Test Range (AFETR). Payload-class satellites include a variety of spacecraft equipped with specific instruments for various scientific and technological missions. These include communications satellites like Starlink; space stations such as the ISS; scientific satellites like the Hubble; Earth observation satellites from companies like Planet Labs, Umbra, and HawkEye 360; GPS; miniature CubeSats for education and research; and military/defense satellites.

Loading next visibility...
Identifier
60192, 2024-124K
Orbit
LEO
Country
Flag of USUS
Related business
Manufacturer
SpaceX/Seattle
Mission
Operational Commercial Communications
Bus & Motor
STARLINK V2MD, Unknown motor
Mass
960 kg wet, ~910 kg dry
Launch date (UTC)
2024-07-03 (1 year ago)
Launch vehicle
FALCON 9
Launch site
Air Force Eastern Test Range (AFETR)
Object type
Payload
Rocket body
Debris
Shape & HBR
Box + 2 Pan, 18.1 m
Radar Cross Section
36.964 m², Large (>1 m²)

Expand to show TLE details & history
Last TLE update: 20 hours ago

TLE from 20 hours ago
0 STARLINK-11173
1 60192U 24124K   25292.28985633 -.00003766  00000-0 -26252-4 0  9990
2 60192  53.1570 138.4511 0000945 105.3346 254.7776 15.69702131 74323
Epoch: 2025-10-19T06:57Z
TLE epoch observation values (Epoch: 2025-10-19T06:57:23.586Z)
Latitude
-0.00007°
Longitude
6.09412°
Altitude
360.831 km
Speed
7.694 km/s
True Right ascension
09h 13m 48s
True Declination
0° 00' 00"
Sunlit
Object was in daylight at epoch
Visualization orbit readout
Latitude
Unknown
Longitude
Unknown
Altitude
Unknown
Speed
Unknown
Apparent Right ascension
Unknown
Apparent Declination
Unknown
Sunlit
N/A
Visualization observer readout
Local Sidereal Time
21:31:06
Azimuth
Unknown
Elevation
Unknown
Doppler factor
Unknown
Orbital elements
Apogee altitude
360.647 km
Perigee altitude
359.374 km
Semi-major axis
6,738.147 km
Eccentricity
0.00009
Inclination
53.157°
RAAN
138.4511°
Arg. of periapsis
105.3346°
True anomaly
254.76715°
Mean anomaly
254.7776°
Eccentric anomaly
254.77238°
Mean motion
3.92403 °/min
Orbital period
91.74 mins
BSTAR
-0.000026252
Loading maneuver chart data...
Computing Atmospheric mass density...
Loading historical data...
Loading historical data...
Loading historical data...
Loading historical data...
Loading historical data...
Loading historical data...
Loading historical data...

Documentation

Showing up to 5 results
|